THORAD DELTA 1 DEB, 9989

Orbit data source: Space-Track

THORAD DELTA 1 DEB, 9989 is space debris in LEO originally from a launch on Fri, 15 Nov 1974 UTC launched from the Air Force Western Test Range (AFWTR). Debris objects in space refer to the collection of defunct objects orbiting the Earth. Examples of debris include non-operational satellites, rocket bodies, and fragments generated from explosions, collisions, or faulty payload assembly.

Loading next visibility...
Identifier
9989, 1974-089EG
Orbit
LEO
Country
Flag of USUS
Related business
Manufacturer
Unknown
Mission
Spacecraft
Bus & Motor
Unknown
Mass
Unknown
Launch date (UTC)
1974-11-15 (52 years ago)
Launch vehicle
Unknown
Launch site
Air Force Western Test Range (AFWTR)
Object type
Payload
Rocket body
Debris
Shape & HBR
Unknown shape, 0.1 m
Radar Cross Section
Medium (>0.1 m² and <1 m²)

Expand to show TLE details & history
Last TLE update: 2 days ago

TLE from 2 days ago
0 THORAD DELTA 1 DEB
1  9989U 74089EG  26162.55186625  .00000980  00000-0  64152-2 0  9995
2  9989 103.0625  79.6774 0191132  14.7122 168.2074 12.49231475300793
Epoch: 2026-06-11T13:14Z
TLE epoch observation values (Epoch: 2026-06-11T13:14:41.243Z)
Latitude
-3.39084°
Longitude
160.32763°
Altitude
1,617.668 km
Speed
6.995 km/s
True Right ascension
17h 15m 34s
True Declination
-3° 22' 22"
Sunlit
Object was in full shadow at epoch
Visualization orbit readout
Latitude
Unknown
Longitude
Unknown
Altitude
Unknown
Speed
Unknown
Apparent Right ascension
Unknown
Apparent Declination
Unknown
Sunlit
N/A
Visualization observer readout
Local Sidereal Time
12:04:40
Azimuth
Unknown
Elevation
Unknown
Doppler factor
Unknown
Orbital elements
Apogee altitude
1,615.253 km
Perigee altitude
1,315.425 km
Semi-major axis
7,843.476 km
Eccentricity
0.01911
Inclination
103.0625°
RAAN
79.6774°
Arg. of periapsis
14.7122°
True anomaly
168.64477°
Mean anomaly
168.2074°
Eccentric anomaly
168.42709°
Mean motion
3.1245 °/min
Orbital period
115.22 mins
BSTAR
0.0064152
Loading maneuver chart data...
Computing Atmospheric mass density...

Documentation

Showing up to 5 results
|